Norwich, United Kingdom

1:26 PM GMT on February 12, 2016 (GMT +0000)
Norwich

Weather History for EGSH - July, 2013

Change the Weather History Date:

Wednesday, July 3, 2013

  Actual Average Record
Temperature  
Mean Temperature 60 °F -  
Max Temperature 68 °F 68 °F 84 °F (2006)
Min Temperature 53 °F 54 °F 50 °F (2002)
Degree Days  
Heating Degree Days 4    
Growing Degree Days 10 (Base 50)    
Moisture  
Dew Point 55 °F    
Average Humidity 83    
Maximum Humidity 100    
Minimum Humidity 64    
Precipitation  
Precipitation 0.00 in - - ()
Sea Level Pressure  
Sea Level Pressure 29.74 in    
Wind  
Wind Speed 7 mph ()    
Max Wind Speed 12 mph    
Max Gust Speed -    
Visibility 5.7 miles    
Events Rain    
Averages and records for this station are not official NWS values.
T = Trace of Precipitation, MM = Missing Value Source: Averaged Metar Reports

Daily Weather History Graph

Daily Weather History Graph

Search for Another Location

Airport or City:

Trip Planner

Search our weather history database for the weather conditions in past years. The results will help you decide how hot, cold, wet, or windy it might be!

Date:

Astronomy

Jul. 03, 2013 Rise Set
Actual Time 4:37 AM BST 9:20 PM BST
Civil Twilight 3:47 AM BST 10:09 PM BST
Nautical Twilight 2:27 AM BST 11:29 PM BST
Astronomical Twilight Sun does not rise Sun does not rise
Moon 1:25 AM BST (7/3) 5:01 PM BST (7/3)
Length of Visible Light 18h 22m
Length of Day
16h 43m
Waning Crescent, 20% of the Moon is Illuminated
Jul 3
Waning Crescent
Jul 8
New
Jul 16
First Quarter
Jul 22
Full
Jul 29
Last Quarter

Hourly Weather History & Observations

Time (BST) Temp. Dew Point Humidity Pressure Visibility Wind Dir Wind Speed Gust Speed Precip Events Conditions
12:20 AM 57.2 °F 53.6 °F 88% 29.65 in 5.6 mi South 9.2 mph - N/A   Scattered Clouds
12:50 AM 57.2 °F 53.6 °F 88% 29.65 in 5.6 mi South 9.2 mph - N/A Rain Light Rain
1:20 AM 55.4 °F 53.6 °F 94% 29.62 in 6.2 mi South 9.2 mph - N/A   Overcast
1:50 AM 55.4 °F 53.6 °F 94% 29.62 in 6.2 mi South 10.4 mph - N/A   Overcast
2:20 AM 55.4 °F 53.6 °F 94% 29.62 in 6.2 mi South 10.4 mph - N/A   Overcast
2:50 AM 55.4 °F 53.6 °F 94% 29.62 in 6.2 mi South 10.4 mph - N/A   Overcast
3:20 AM 57.2 °F 53.6 °F 88% 29.59 in 6.2 mi South 9.2 mph - N/A   Overcast
3:50 AM 57.2 °F 53.6 °F 88% 29.59 in 6.2 mi South 9.2 mph - N/A   Overcast
4:20 AM 57.2 °F 53.6 °F 88% 29.59 in 6.2 mi South 9.2 mph - N/A   Overcast
4:50 AM 57.2 °F 55.4 °F 94% 29.59 in 6.2 mi South 8.1 mph - N/A   Overcast
5:20 AM 57.2 °F 55.4 °F 94% 29.59 in 6.2 mi SSW 8.1 mph - N/A   Overcast
5:50 AM 57.2 °F 55.4 °F 94% 29.59 in 3.1 mi SSW 6.9 mph - N/A   Overcast
6:20 AM 57.2 °F 55.4 °F 94% 29.59 in 3.1 mi SSW 5.8 mph - N/A   Overcast
6:50 AM 57.2 °F 57.2 °F 100% 29.62 in 3.7 mi SSW 6.9 mph - N/A   Overcast
7:20 AM 59.0 °F 57.2 °F 94% 29.62 in 5.0 mi SSW 6.9 mph - N/A   Overcast
7:50 AM 59.0 °F 57.2 °F 94% 29.62 in 6.2 mi WSW 8.1 mph - N/A   Overcast
8:20 AM 59.0 °F 57.2 °F 94% 29.65 in 5.6 mi WSW 6.9 mph - N/A   Overcast
8:50 AM 59.0 °F 59.0 °F 100% 29.65 in 6.2 mi WSW 6.9 mph - N/A   Overcast
9:20 AM 60.8 °F 59.0 °F 94% 29.65 in 6.2 mi WSW 8.1 mph - N/A   Overcast
9:50 AM 62.6 °F 59.0 °F 88% 29.65 in 6.2 mi WSW 6.9 mph - N/A   Overcast
10:20 AM 62.6 °F 59.0 °F 88% 29.68 in 6.2 mi WSW 8.1 mph - N/A   Mostly Cloudy
10:50 AM 62.6 °F 57.2 °F 82% 29.68 in 6.2 mi West 11.5 mph - N/A   Mostly Cloudy
11:20 AM 62.6 °F 57.2 °F 82% 29.71 in 6.2 mi West 10.4 mph - N/A   Mostly Cloudy
11:50 AM 64.4 °F 57.2 °F 77% 29.71 in 6.2 mi West 6.9 mph - N/A   Mostly Cloudy
12:20 PM 64.4 °F 55.4 °F 73% 29.71 in 6.2 mi West 8.1 mph - N/A   Mostly Cloudy
12:50 PM 62.6 °F 59.0 °F 88% 29.74 in 3.7 mi West 6.9 mph - N/A Rain Light Rain Showers
1:20 PM 62.6 °F 57.2 °F 82% 29.74 in 6.2 mi WSW 6.9 mph - N/A   Mostly Cloudy
1:50 PM 64.4 °F 57.2 °F 77% 29.77 in 6.2 mi West 8.1 mph - N/A   Mostly Cloudy
2:20 PM 64.4 °F 57.2 °F 77% 29.77 in 6.2 mi WNW 5.8 mph - N/A   Mostly Cloudy
2:50 PM 62.6 °F 55.4 °F 77% 29.77 in 6.2 mi West 11.5 mph - N/A   Mostly Cloudy
3:20 PM 64.4 °F 57.2 °F 77% 29.80 in 6.2 mi NW 5.8 mph - N/A   Mostly Cloudy
3:50 PM 66.2 °F 57.2 °F 73% 29.80 in 6.2 mi WNW 5.8 mph - N/A   Mostly Cloudy
4:20 PM 64.4 °F 57.2 °F 77% 29.83 in 6.2 mi WNW 8.1 mph - N/A   Mostly Cloudy
4:50 PM 66.2 °F 55.4 °F 68% 29.83 in 6.2 mi NW 4.6 mph - N/A   Mostly Cloudy
5:20 PM 66.2 °F 55.4 °F 68% 29.83 in 6.2 mi NW 5.8 mph - N/A   Mostly Cloudy
5:50 PM 66.2 °F 55.4 °F 68% 29.83 in 6.2 mi WNW 4.6 mph - N/A   Mostly Cloudy
6:20 PM 68.0 °F 55.4 °F 64% 29.86 in 6.2 mi WNW 6.9 mph - N/A   Mostly Cloudy
6:50 PM 66.2 °F 53.6 °F 64% 29.86 in 6.2 mi West 5.8 mph - N/A   Scattered Clouds
7:20 PM 66.2 °F 55.4 °F 68% 29.89 in 6.2 mi West 5.8 mph - N/A   Scattered Clouds
7:50 PM 66.2 °F 53.6 °F 64% 29.89 in 6.2 mi WNW 8.1 mph - N/A   Scattered Clouds
8:20 PM 64.4 °F 53.6 °F 68% 29.92 in 6.2 mi West 10.4 mph - N/A   Mostly Cloudy
8:50 PM 64.4 °F 53.6 °F 68% 29.92 in 6.2 mi West 4.6 mph - N/A   Scattered Clouds
9:20 PM 62.6 °F 53.6 °F 72% 29.92 in 6.2 mi West 5.8 mph - N/A   Scattered Clouds
9:50 PM 59.0 °F 51.8 °F 77% 29.95 in 4.3 mi West 5.8 mph - N/A   Unknown
10:20 PM 55.4 °F 50.0 °F 82% 29.95 in 4.3 mi WSW 5.8 mph - N/A   Unknown
10:50 PM 57.2 °F 51.8 °F 82% 29.95 in 5.0 mi West 5.8 mph - N/A   Unknown
11:20 PM 53.6 °F 50.0 °F 88% 29.98 in 3.7 mi WSW 5.8 mph - N/A   Unknown
11:50 PM 55.4 °F 51.8 °F 88% 29.98 in 3.7 mi SSW 3.5 mph - N/A   Unknown